Location: Bluff Heights
(33.7692°N, 118.1592°W)
Time: 23:02:07
(UTC+00:00)

Tiros 1 - Pass Details

Date: 24 July 2021
Orbit: 630 x 663 km, 48.4° (Epoch: 20 September)

Event Time Altitude Azimuth Distance (km) Brightness Sun altitude
Rises 06:47:59 0° 288° (WNW) 2,956 11.0 -33.8°
Reaches altitude 10° 06:51:15 10° 311° (NW) 2,039 10.3 -34.0°
Maximum altitude 06:54:01 15° 348° (NNW) 1,705 10.0 -34.2°
Drops below altitude 10° 06:56:47 10° 24° (NNE) 2,028 10.2 -34.4°
Sets 07:00:01 0° 48° (NE) 2,931 10.8 -34.6°
